Location: *
(42.3377°N, 71.0868°W)
Time: 04:58:13
(UTC+00:00)

Cosmos 1340 Rocket - Pass Details

Date: 09 April 2020
Orbit: 529 x 559 km, 81.2° (Epoch: 30 May)

Event Time Altitude Azimuth Distance (km) Brightness Sun altitude
Rises 23:50:25 0° 164° (SSE) 2,725 6.0 -6.3°
Reaches altitude 10° 23:52:46 10° 153° (SSE) 1,833 5.1 -6.7°
Maximum altitude 23:56:18 30° 92° (E) 1,017 3.7 -7.3°
Drops below altitude 10° 23:59:50 10° 32° (NNE) 1,833 5.4 -8.0°
Sets 00:02:11 0° 21° (NNE) 2,726 6.4 -8.4°
